sat.trackr.live / text

‹ back to catalog

QIANFAN-226

NORAD 69855 · 2026-155H

PAYLOAD ACTIVE UNKNOWN

§ Identity

Operator
Country
PRC
Launch date
2026-07-05
Launch site
WSC
Launch vehicle
Mass (kg)
RCS (m²)

External: N2YO · Heavens-Above · Gunter

§ Orbital elements

Epoch: 2026-09-19T18:34:06.441024Z

Period
106.56 min
Inclination
89.0078°
Eccentricity
0.0036319
Mean motion
13.51339567 rev/d
Perigee alt
1,040.3 km
Apogee alt
1,094.4 km
Semi-major
7,445.5 km
B*
-2.9777e+0
RAAN
53.8014°
Arg perigee
16.6338°
Mean anomaly
343.5996°
Rev number
1,062

§ Raw data

QIANFAN-2261 69855U 26155H   26262.77368566 -.01813144  00000+0 -29777+1 0  99932 69855  89.0078  53.8014 0036319  16.6338 343.5996 13.51339567 10628

JSON: /api/v1/satellites/69855 · /tle

For live sub-satellite position, see the globe view (requires WebGL).

§ Visibility from observer

Set your observer location to see the next 7 days of passes ≥ 10°. The values pass through the URL so the page stays shareable.

No JS? Fill the form by hand. The geolocation button needs JavaScript.